{"data":{"norad_id":64003,"epoch":"2026-05-25T02:06:05.203872Z","epoch_age_seconds":63379,"freshness":"FRESH","line1":"1 64003U 25101K   26145.08756023  .00014645  00000+0  54055-3 0  9992","line2":"2 64003  42.9956 286.1345 0001824  55.8954 304.2070 15.27585823 58746","mean_motion":15.27585823,"eccentricity":0.0001824,"inclination_deg":42.9956,"raan_deg":286.1345,"arg_perigee_deg":55.8954,"mean_anomaly_deg":304.207,"bstar":0.00054055,"rev_number":5874,"period_min":94.266389378504,"perigee_km":481.78018277465,"apogee_km":484.2831371018,"semimajor_km":6861.1686599382,"source":"CELESTRAK","updated_at":"2026-05-25T13:38:20.219404Z"}}